VTI7M VABB-VOMM

Flight info

Callsign VTI7M
Flight time 0h 56m
Altitude 35000
Route VEVAK2A EPKOS B211 BBI DCT OPAMO OPAMO2E
Aircraft B738/M-SDE2E3FGHIRWXY/LB1

Departure

Time 2026-05-08 19:19
Airport Chhatrapati Shivaji Maharaj International Airport (VABB)

Arrival

Time 2026-05-08 20:16
Airport Chennai International Airport (VOMM)
Time Latitude Longitude Altitude Speed Heading
2026-05-08 18:46 19.09153 72.85307 28 ft 0 kts
2026-05-08 19:08 19.09137 72.85307 29 ft 4 kts
2026-05-08 19:08 19.09111 72.85303 29 ft 4 kts 20°
2026-05-08 19:08 19.09093 72.85290 28 ft 4 kts 81°
2026-05-08 19:09 19.09092 72.85285 28 ft 0 kts 89°
2026-05-08 19:13 19.09092 72.85298 28 ft 6 kts 89°
2026-05-08 19:13 19.09092 72.85361 29 ft 10 kts 89°
2026-05-08 19:14 19.09093 72.85436 29 ft 10 kts 89°
2026-05-08 19:14 19.09094 72.85507 30 ft 10 kts 89°
2026-05-08 19:14 19.09090 72.85580 30 ft 10 kts 111°
2026-05-08 19:14 19.09036 72.85625 29 ft 10 kts 123°
2026-05-08 19:15 19.09029 72.85713 29 ft 18 kts 88°
2026-05-08 19:15 19.09032 72.85898 30 ft 28 kts 90°
2026-05-08 19:15 19.09034 72.86105 32 ft 27 kts 89°
2026-05-08 19:15 19.09037 72.86304 34 ft 31 kts 90°
2026-05-08 19:16 19.09041 72.86568 34 ft 38 kts 89°
2026-05-08 19:16 19.09046 72.86844 34 ft 37 kts 88°
2026-05-08 19:16 19.09048 72.87115 33 ft 37 kts 88°
2026-05-08 19:16 19.09052 72.87381 33 ft 36 kts 88°
2026-05-08 19:17 19.09055 72.87643 32 ft 33 kts 89°
2026-05-08 19:17 19.09020 72.87803 32 ft 14 kts 156°
2026-05-08 19:17 19.08996 72.87807 32 ft 1 kts 181°
2026-05-08 19:17 19.08995 72.87807 32 ft 0 kts 181°
2026-05-08 19:18 19.08987 72.87807 32 ft 10 kts 181°
2026-05-08 19:18 19.08888 72.87782 32 ft 12 kts 248°
2026-05-08 19:18 19.08886 72.87750 32 ft 0 kts 268°
2026-05-08 19:19 19.08884 72.87690 31 ft 39 kts 269°
2026-05-08 19:19 19.08872 72.86933 35 ft 162 kts 269°
2026-05-08 19:19 19.08835 72.85556 988 ft 188 kts 270°
2026-05-08 19:19 19.08793 72.84082 2261 ft 217 kts 271°
2026-05-08 19:20 19.08752 72.82320 2720 ft 252 kts 272°
2026-05-08 19:20 19.08752 72.81716 3055 ft 251 kts 273°
2026-05-08 19:20 19.08746 72.78612 4161 ft 262 kts 272°
2026-05-08 19:20 19.08724 72.76612 4616 ft 279 kts 271°
2026-05-08 19:21 19.08664 72.74546 5460 ft 283 kts 264°
2026-05-08 19:21 19.07955 72.72602 6408 ft 288 kts 234°
2026-05-08 19:21 19.06444 72.71220 7334 ft 292 kts 205°
2026-05-08 19:21 19.04488 72.70735 8278 ft 292 kts 178°
2026-05-08 19:22 19.02540 72.71225 8685 ft 288 kts 149°
2026-05-08 19:22 19.00988 72.72543 8824 ft 287 kts 137°
2026-05-08 19:22 18.99353 72.73769 8819 ft 291 kts 149°
2026-05-08 19:22 18.97481 72.74576 8823 ft 292 kts 163°
2026-05-08 19:23 18.95462 72.74878 8827 ft 295 kts 177°
2026-05-08 19:23 18.93409 72.74819 8829 ft 295 kts 180°
2026-05-08 19:23 18.91350 72.74723 8827 ft 296 kts 180°
2026-05-08 19:23 18.87696 72.74573 8823 ft 296 kts 180°
2026-05-08 19:24 18.84977 72.74485 8819 ft 296 kts 180°
2026-05-08 19:24 18.79464 72.74333 8823 ft 296 kts 179°
2026-05-08 19:24 18.75465 72.74957 9265 ft 300 kts 159°
2026-05-08 19:24 18.71464 72.76403 11058 ft 316 kts 159°
2026-05-08 19:25 18.67148 72.77941 12700 ft 337 kts 160°
2026-05-08 19:25 18.62629 72.79526 14553 ft 348 kts 160°
2026-05-08 19:25 18.57961 72.81151 16394 ft 359 kts 161°
2026-05-08 19:25 18.53136 72.82825 18164 ft 371 kts 161°
2026-05-08 19:26 18.48155 72.84553 19561 ft 384 kts 162°
2026-05-08 19:26 18.44679 72.85757 20508 ft 392 kts 162°
2026-05-08 19:26 18.39413 72.87580 21828 ft 405 kts 162°
2026-05-08 19:26 18.33980 72.89461 23109 ft 417 kts 163°
2026-05-08 19:27 18.28478 72.91365 24188 ft 426 kts 163°
2026-05-08 19:27 18.22812 72.93325 25348 ft 431 kts 162°
2026-05-08 19:27 18.17063 72.95313 26435 ft 438 kts 162°
2026-05-08 19:27 18.11234 72.97326 27500 ft 444 kts 162°
2026-05-08 19:28 18.05940 73.00605 28485 ft 449 kts 136°
2026-05-08 19:28 18.01357 73.05096 29507 ft 454 kts 136°
2026-05-08 19:28 17.96690 73.09633 30352 ft 460 kts 136°
2026-05-08 19:28 17.91931 73.14199 31181 ft 464 kts 137°
2026-05-08 19:29 17.87126 73.18781 31970 ft 469 kts 137°
2026-05-08 19:29 17.82279 73.23396 32711 ft 473 kts 138°
2026-05-08 19:29 17.77411 73.28030 33784 ft 469 kts 138°
2026-05-08 19:29 17.72601 73.32607 34670 ft 468 kts 138°
2026-05-08 19:30 17.67750 73.37219 34871 ft 474 kts 139°
2026-05-08 19:30 17.57949 73.46528 34847 ft 471 kts 139°
2026-05-08 19:31 17.48325 73.55655 34861 ft 464 kts 139°
2026-05-08 19:31 17.38745 73.64726 34866 ft 465 kts 139°
2026-05-08 19:32 17.29135 73.73813 34876 ft 466 kts 139°
2026-05-08 19:32 17.19500 73.82910 34876 ft 467 kts 139°
2026-05-08 19:33 17.09847 73.92011 34881 ft 467 kts 139°
2026-05-08 19:33 17.00205 74.01088 34875 ft 466 kts 139°
2026-05-08 19:34 16.90572 74.10145 34877 ft 466 kts 139°
2026-05-08 19:34 16.86350 74.15237 34886 ft 466 kts 123°
2026-05-08 19:34 16.82941 74.20959 34871 ft 466 kts 122°
2026-05-08 19:35 16.76074 74.32455 34863 ft 466 kts 123°
2026-05-08 19:35 16.69087 74.43842 34869 ft 465 kts 123°
2026-05-08 19:36 16.62108 74.55189 34870 ft 465 kts 123°
2026-05-08 19:36 16.55134 74.66519 34871 ft 465 kts 123°
2026-05-08 19:37 16.48124 74.77889 34868 ft 465 kts 123°
2026-05-08 19:37 16.41132 74.89211 34858 ft 465 kts 123°
2026-05-08 19:38 16.34131 75.00528 34860 ft 464 kts 123°
2026-05-08 19:38 16.27140 75.11814 34854 ft 464 kts 123°
2026-05-08 19:39 16.20149 75.23081 34852 ft 464 kts 123°
2026-05-08 19:39 16.13176 75.34300 34850 ft 464 kts 124°
2026-05-08 19:40 16.06121 75.45635 34859 ft 463 kts 124°
2026-05-08 19:40 15.99165 75.56794 34859 ft 463 kts 124°
2026-05-08 19:41 15.92159 75.68016 34860 ft 463 kts 124°
2026-05-08 19:41 15.85142 75.79238 34858 ft 463 kts 124°
2026-05-08 19:42 15.78126 75.90444 34877 ft 463 kts 124°
2026-05-08 19:42 15.71104 76.01642 34867 ft 463 kts 124°
2026-05-08 19:43 15.64067 76.12820 34876 ft 462 kts 124°
2026-05-08 19:43 15.57026 76.23992 34873 ft 462 kts 124°
2026-05-08 19:44 15.50004 76.35120 34814 ft 463 kts 124°
2026-05-08 19:44 15.42994 76.46214 34889 ft 456 kts 124°
2026-05-08 19:45 15.36019 76.57234 34901 ft 460 kts 124°
2026-05-08 19:45 15.28896 76.68473 34893 ft 471 kts 124°
2026-05-08 19:46 15.21687 76.79836 34882 ft 470 kts 124°
2026-05-08 19:46 15.07231 76.91540 34917 ft 447 kts 162°
2026-05-08 19:47 14.95340 76.95811 34918 ft 458 kts 162°
2026-05-08 19:47 14.83239 77.00279 34908 ft 464 kts 162°
2026-05-08 19:48 14.71172 77.04729 34896 ft 454 kts 162°
2026-05-08 19:48 14.59866 77.10028 34908 ft 451 kts 135°
2026-05-08 19:49 14.56758 77.15596 34945 ft 456 kts 112°
2026-05-08 19:49 14.54564 77.21816 34927 ft 463 kts 111°
2026-05-08 19:49 14.50075 77.34459 34918 ft 473 kts 111°
2026-05-08 19:50 14.45476 77.47074 34897 ft 465 kts 112°
2026-05-08 19:50 14.40981 77.59372 34908 ft 454 kts 112°
2026-05-08 19:51 14.36500 77.71610 34925 ft 460 kts 112°
2026-05-08 19:51 14.31914 77.84119 34912 ft 470 kts 112°
2026-05-08 19:52 14.27301 77.96678 34903 ft 465 kts 112°
2026-05-08 19:52 14.22792 78.08933 34908 ft 453 kts 112°
2026-05-08 19:53 14.18303 78.21107 34932 ft 458 kts 112°
2026-05-08 19:53 14.13710 78.33542 34927 ft 469 kts 112°
2026-05-08 19:54 14.09079 78.46065 34907 ft 464 kts 112°
2026-05-08 19:54 14.04541 78.58311 34913 ft 453 kts 112°
2026-05-08 19:55 13.98626 78.69701 34929 ft 455 kts 123°
2026-05-08 19:55 13.91862 78.80921 34907 ft 466 kts 122°
2026-05-08 19:56 13.85231 78.92253 34896 ft 462 kts 122°
2026-05-08 19:56 13.80629 79.00115 34084 ft 459 kts 122°
2026-05-08 19:57 13.78975 79.02936 33246 ft 463 kts 122°
2026-05-08 19:57 13.77295 79.05799 32337 ft 468 kts 122°
2026-05-08 19:57 13.75604 79.08680 31382 ft 474 kts 122°
2026-05-08 19:57 13.73887 79.11604 30561 ft 478 kts 122°
2026-05-08 19:58 13.72172 79.14526 29794 ft 478 kts 121°
2026-05-08 19:58 13.70457 79.17446 28999 ft 477 kts 121°
2026-05-08 19:58 13.68745 79.20362 28231 ft 475 kts 121°
2026-05-08 19:58 13.67038 79.23267 27486 ft 472 kts 121°
2026-05-08 19:59 13.65344 79.26148 26756 ft 470 kts 121°
2026-05-08 19:59 13.63658 79.29016 26013 ft 468 kts 121°
2026-05-08 19:59 13.61978 79.31871 25279 ft 466 kts 121°
2026-05-08 19:59 13.60305 79.34714 24538 ft 464 kts 121°
2026-05-08 20:00 13.58635 79.37550 23811 ft 463 kts 121°
2026-05-08 20:00 13.56970 79.40378 22989 ft 462 kts 121°
2026-05-08 20:00 13.55310 79.43197 22192 ft 459 kts 121°
2026-05-08 20:00 13.53665 79.45988 21440 ft 455 kts 121°
2026-05-08 20:01 13.52033 79.48757 20720 ft 451 kts 121°
2026-05-08 20:01 13.50417 79.51497 19988 ft 448 kts 121°
2026-05-08 20:01 13.48808 79.54227 19255 ft 445 kts 121°
2026-05-08 20:01 13.47212 79.56933 18548 ft 442 kts 121°
2026-05-08 20:02 13.45635 79.59606 18207 ft 430 kts 121°
2026-05-08 20:02 13.44107 79.62194 17933 ft 416 kts 121°
2026-05-08 20:02 13.42636 79.64683 17732 ft 401 kts 121°
2026-05-08 20:02 13.41204 79.67129 17106 ft 399 kts 120°
2026-05-08 20:03 13.39788 79.69576 16599 ft 394 kts 120°
2026-05-08 20:03 13.38074 79.72546 15976 ft 389 kts 120°
2026-05-08 20:03 13.35340 79.77283 15023 ft 381 kts 119°
2026-05-08 20:03 13.32656 79.81924 14064 ft 375 kts 119°
2026-05-08 20:04 13.30012 79.86489 13057 ft 369 kts 119°
2026-05-08 20:04 13.27416 79.90971 12042 ft 363 kts 119°
2026-05-08 20:04 13.24858 79.95383 11067 ft 356 kts 119°
2026-05-08 20:04 13.22830 79.98880 10313 ft 350 kts 120°
2026-05-08 20:05 13.21591 80.01016 9995 ft 343 kts 120°
2026-05-08 20:05 13.20388 80.03087 9764 ft 333 kts 120°
2026-05-08 20:05 13.19019 80.04916 9740 ft 318 kts 137°
2026-05-08 20:05 13.17190 80.06052 9701 ft 308 kts 157°
2026-05-08 20:06 13.15121 80.06557 9610 ft 299 kts 175°
2026-05-08 20:06 13.13109 80.06467 9538 ft 289 kts 184°
2026-05-08 20:06 13.11133 80.06205 9340 ft 284 kts 186°
2026-05-08 20:06 13.09178 80.05928 9026 ft 283 kts 186°
2026-05-08 20:07 13.07243 80.05586 8706 ft 284 kts 197°
2026-05-08 20:07 13.05559 80.04534 8394 ft 287 kts 224°
2026-05-08 20:07 13.04463 80.02844 8089 ft 284 kts 246°
2026-05-08 20:07 13.03746 80.00964 7614 ft 284 kts 249°
2026-05-08 20:08 13.03054 79.99068 7140 ft 283 kts 248°
2026-05-08 20:08 13.02353 79.97185 6705 ft 281 kts 248°
2026-05-08 20:08 13.01650 79.95323 6328 ft 278 kts 248°
2026-05-08 20:08 13.00811 79.93605 6145 ft 262 kts 226°
2026-05-08 20:09 12.99350 79.92656 5935 ft 245 kts 189°
2026-05-08 20:09 12.97731 79.92783 5670 ft 230 kts 157°
2026-05-08 20:09 12.96260 79.93388 5346 ft 227 kts 154°
2026-05-08 20:09 12.94910 79.94200 4964 ft 224 kts 138°
2026-05-08 20:10 12.93880 79.95367 4632 ft 219 kts 120°
2026-05-08 20:10 12.93295 79.96776 4351 ft 213 kts 103°
2026-05-08 20:10 12.93121 79.98258 4176 ft 202 kts 90°
2026-05-08 20:10 12.93183 79.99643 4097 ft 187 kts 86°
2026-05-08 20:11 12.93350 80.00910 3996 ft 172 kts 77°
2026-05-08 20:11 12.93622 80.02065 3815 ft 163 kts 76°
2026-05-08 20:11 12.93933 80.03159 3610 ft 156 kts 72°
2026-05-08 20:11 12.94282 80.04176 3410 ft 148 kts 71°
2026-05-08 20:12 12.94630 80.05130 3170 ft 136 kts 70°
2026-05-08 20:12 12.94942 80.05971 2926 ft 120 kts 70°
2026-05-08 20:12 12.95238 80.06769 2494 ft 120 kts 70°
2026-05-08 20:12 12.95533 80.07564 2050 ft 122 kts 70°
2026-05-08 20:13 12.95736 80.08106 1887 ft 126 kts 69°
2026-05-08 20:13 12.96023 80.08878 1841 ft 124 kts 69°
2026-05-08 20:13 12.96232 80.09437 1672 ft 128 kts 69°
2026-05-08 20:13 12.96637 80.10523 1224 ft 122 kts 69°
2026-05-08 20:14 12.96841 80.11071 1005 ft 121 kts 70°
2026-05-08 20:14 12.97146 80.11892 833 ft 125 kts 69°
2026-05-08 20:14 12.97443 80.12687 628 ft 120 kts 67°
2026-05-08 20:14 12.97736 80.13476 461 ft 118 kts 67°
2026-05-08 20:15 12.98037 80.14266 302 ft 121 kts 68°
2026-05-08 20:15 12.98343 80.15069 159 ft 120 kts 69°
2026-05-08 20:15 12.98635 80.15862 50 ft 112 kts 68°
2026-05-08 20:15 12.98856 80.16471 52 ft 69 kts 69°
2026-05-08 20:16 12.98985 80.16810 53 ft 42 kts 70°
2026-05-08 20:16 12.99083 80.17075 53 ft 37 kts 68°
2026-05-08 20:16 12.99096 80.17200 54 ft 4 kts 146°
2026-05-08 20:16 12.99069 80.17209 53 ft 4 kts 162°
2026-05-08 20:17 12.99042 80.17218 54 ft 4 kts 162°
2026-05-08 20:17 12.99016 80.17227 52 ft 4 kts 161°
2026-05-08 20:17 12.98990 80.17236 53 ft 4 kts 161°
2026-05-08 20:17 12.98964 80.17238 55 ft 4 kts 188°
2026-05-08 20:18 12.98941 80.17217 53 ft 5 kts 239°
2026-05-08 20:18 12.98928 80.17186 52 ft 5 kts 247°
2026-05-08 20:18 12.98915 80.17156 51 ft 5 kts 248°
2026-05-08 20:18 12.98903 80.17124 51 ft 5 kts 248°
2026-05-08 20:19 12.98892 80.17093 56 ft 5 kts 250°
2026-05-08 20:19 12.98880 80.17060 54 ft 5 kts 249°
2026-05-08 20:19 12.98867 80.17026 55 ft 5 kts 249°
2026-05-08 20:19 12.98854 80.16991 54 ft 5 kts 249°
2026-05-08 20:20 12.98840 80.16956 52 ft 5 kts 249°
2026-05-08 20:20 12.98827 80.16922 54 ft 5 kts 248°
2026-05-08 20:20 12.98815 80.16889 52 ft 5 kts 248°
2026-05-08 20:20 12.98802 80.16856 51 ft 5 kts 248°
2026-05-08 20:21 12.98790 80.16824 52 ft 5 kts 249°
2026-05-08 20:21 12.98778 80.16791 50 ft 6 kts 250°
2026-05-08 20:21 12.98752 80.16719 52 ft 16 kts 249°
2026-05-08 20:21 12.98707 80.16602 53 ft 18 kts 249°
2026-05-08 20:22 12.98662 80.16483 55 ft 18 kts 249°
2026-05-08 20:22 12.98623 80.16367 55 ft 17 kts 260°
2026-05-08 20:22 12.98589 80.16257 52 ft 16 kts 229°
2026-05-08 20:22 12.98536 80.16158 54 ft 15 kts 237°
2026-05-08 20:23 12.98457 80.16146 51 ft 12 kts 159°
2026-05-08 20:23 12.98380 80.16156 54 ft 11 kts 206°
2026-05-08 20:23 12.98344 80.16088 53 ft 11 kts 249°
2026-05-08 20:23 12.98320 80.16037 52 ft 4 kts 218°
2026-05-08 20:24 12.98294 80.16039 51 ft 4 kts 159°
2026-05-08 20:24 12.98269 80.16048 53 ft 4 kts 159°
2026-05-08 20:24 12.98259 80.16053 52 ft 0 kts 158°
2026-05-08 20:24 12.98251 80.16056 49 ft 2 kts 158°
2026-05-08 20:25 12.98248 80.16057 50 ft 0 kts 159°